Regional Weather Roundup
Issued by NWS

Home | Current Version | Previous Version | Graphics & Text | Print | Product List | Glossary On
Versions: 1 2 3 4 5 6 7 8 9 10 11 12 13 14 15 16 17 18 19 20 21 22 23 24 25 26 27 28 29 30 31 32 33 34 35 36 37 38 39 40 41 42 43 44 45 46 47 48 49 50
000
ASUS43 KMPX 200010
RWRMN
WEATHER ROUNDUP FOR MINNESOTA
NATIONAL WEATHER SERVICE TWIN CITIES/CHANHASSEN MN
600 PM CST FRI DEC 19 2014


NOTE: "FAIR" INDICATES FEW OR NO CLOUDS BELOW 12,000 FEET WITH NO
SIGNIFICANT WEATHER AND/OR OBSTRUCTIONS TO VISIBILITY. N/A MEANS
CURRENT SKY AND/OR WEATHER CONDITIONS ARE NOT AVAILABLE.

MNZ060>063-068>070-200100-
   Twin Cities Metro

CITY           SKY/WX    TMP DP  RH WIND       PRES   REMARKS
TWIN CITIES    CLOUDY    29  24  82 SE10      30.20S WCI  20
6HR MIN TEMP:  26; 6HR MAX TEMP:  30;

ST PAUL        CLOUDY    29  24  82 SE10      30.21F WCI  20
CRYSTAL        CLOUDY    30  25  81 SE10      30.18S WCI  21
LAKEVILLE      MOCLDY    28  25  86 S8        30.19F WCI  20
EDEN PRAIRIE   CLOUDY    30  25  81 SE12      30.18R WCI  20
6HR MIN TEMP:  27; 6HR MAX TEMP:  30;

SOUTH ST PAUL  CLOUDY    30  25  81 SE5       30.20S WCI  25
LAKE ELMO      CLOUDY    28  27  93 SE8       30.21S WCI  20
$$
MNZ001>005-007-008-013>017-022>024-027-028-200100-
   Northwest Minnesota

CITY           SKY/WX    TMP DP  RH WIND       PRES   REMARKS
BEMIDJI        CLOUDY    24  23  98 SE7       30.05F FOG     WCI  16
HALLOCK        CLOUDY    28  27  93 SE7       30.03F FOG     WCI  21
ROSEAU         CLOUDY    27  21  80 SE10      30.06S FOG     WCI  17
WARROAD        CLOUDY    25  21  86 SE8       30.07S FOG     WCI  16
THIEF RVR FALL CLOUDY    27  27 100 SE8       30.04S WCI  18
CROOKSTON      MOCLDY    28  28 100 S8        30.05S FOG     WCI  20
FOSSTON        CLOUDY    25  23  93 S7        30.05R FOG     WCI  17
DETROIT LAKES  MIX PCPN  30  28  93 S9        30.04S WCI  22
MOORHEAD       CLOUDY    30  30 100 S13       30.05R FOG     WCI  20
PARK RAPIDS    LGT SNOW  25  24  96 SE14      30.06F VSB 3/4 WCI  13
MAHNOMEN       CLOUDY    27  26  95 SE7       30.03S FOG     WCI  19
$$
MNZ006-009>011-018-025>026-200100-
   North Central Minnesota

CITY           SKY/WX    TMP DP  RH WIND       PRES   REMARKS
BAUDETTE       CLOUDY    24  22  91 S7        30.07S WCI  16
FLAG ISLAND    CLOUDY    25  21  86 S12       30.07S WCI  14
INTL FALLS     CLOUDY    24  20  84 SE9       30.11S WCI  14
6HR MIN TEMP:  23; 6HR MAX TEMP:  24; 6HR PCP:  0.01;

WASKISH        CLOUDY    25  23  93 CALM      30.08S FOG
BIG FORK       LGT SNOW  25  21  86 S7        30.10F WCI  17
LONGVILLE      CLOUDY    23  23 100 SE7       30.11S FOG     WCI  15
GRAND RAPIDS   CLOUDY    23  19  86 SE9       30.11S WCI  13
CRANE LAKE     CLOUDY    23  19  86 S3        30.17S
ORR            CLOUDY    23  19  86 SE7       30.10F WCI  15
COOK           CLOUDY    23  21  93 SE6       30.14S WCI  16
WALKER         CLOUDY    23  22  98 SE6       30.08S FOG     WCI  16
$$
MNZ012-019>021-037-200100-
   Northeast Minnesota

CITY           SKY/WX    TMP DP  RH WIND       PRES   REMARKS
DULUTH         FLURRIES  25  19  80 SE8       30.16S WCI  16
6HR MIN TEMP:  23; 6HR MAX TEMP:  25; 6HR PCP: TRACE;

ELY            CLOUDY    23  19  86 S5        30.15F WCI  17
HIBBING        CLOUDY    24  20  84 SE7       30.14S WCI  16
EVELETH        CLOUDY    23  23 100 SE6       30.16S FOG     WCI  16
DULUTH HARBOR  CLOUDY    28  23  80 CALM      30.23S
SILVER BAY     CLOUDY    27  23  86 CALM      30.18S
GRAND MARAIS     N/A     29  24  82 S5        30.23F WCI  24
G MARAIS ARPRT CLOUDY    21  18  86 CALM      30.16F
$$
MNZ029>031-032-039>041-046>048-054>057-064-200100-
   West Central Minnesota

CITY           SKY/WX    TMP DP  RH WIND       PRES   REMARKS
FERGUS FALLS   CLOUDY    28  28 100 S14       30.09S FOG     WCI  17
WHEATON        CLOUDY    28  27  93 SE8       30.08S WCI  20
MORRIS         CLOUDY    30  28  93 S12       30.07S FOG     WCI  21
ALEXANDRIA     CLOUDY    29  27  92 S17       30.08F FOG     WCI  17
ELBOW LAKE     CLOUDY    29  28  97 S15       30.06S FOG     WCI  18
WADENA         LGT SNOW  27  27 100 SE3       30.07F
GLENWOOD       CLOUDY    28  28 100 S15       30.09F FOG     WCI  17
APPLETON       CLOUDY    32  28  86 S5        30.09S WCI  27
BENSON         CLOUDY    30  28  93 S14       30.10S WCI  20
ORTONVILLE     CLOUDY    30  27  86 S10       30.05F WCI  21
MADISON        PTCLDY    34  32  93 S7        30.08S WCI  28
WILLMAR        CLOUDY    34  28  80 S5        30.13S WCI  30
$$
MNZ033>034-036-042>043-049>051-058-059-200100-
   Central Minnesota

CITY           SKY/WX    TMP DP  RH WIND       PRES   REMARKS
ST CLOUD       CLOUDY    30  25  81 SE12      30.15S HAZE    WCI  20
6HR MIN TEMP:  25; 6HR MAX TEMP:  30;

SAUK CENTRE    CLOUDY    30  28  92 S10       30.11S FOG     WCI  21
PAYNESVILLE    CLOUDY    28  27  96 SE7       30.13S FOG     WCI  21
AITKIN         CLOUDY    27  21  80 SE8       30.13R HAZE    WCI  18
PINE RIVER     CLOUDY    25  25 100 SE9       30.13F FOG     WCI  15
BRAINERD       CLOUDY    25  23  92 S7        30.13S FOG     WCI  17
STAPLES        CLOUDY    25  25 100 SE6       30.10S FOG     WCI  18
LONG PRAIRIE   CLOUDY    28  28 100 SE8       30.10S FOG     WCI  20
LITTLE FALLS   CLOUDY    28  25  86 SE7       30.13S FOG     WCI  21
LITCHFIELD     CLOUDY    30  30 100 SE5       30.14F WCI  25
BUFFALO        CLOUDY    29  26  87 SE6       30.18S FOG     WCI  23
MAPLE LAKE     CLOUDY    30  28  93 SE7       30.17S FOG     WCI  23
$$
MNZ037-044-045-052-053-200100-
   East Central Minnesota

CITY           SKY/WX    TMP DP  RH WIND       PRES   REMARKS
PRINCETON      CLOUDY    28  25  86 SE5       30.18R WCI  23
MORA           CLOUDY    27  21  80 SE5       30.20R WCI  21
CAMBRIDGE      CLOUDY    28  21  74 SE6       30.17S WCI  22
RUSH CITY      CLOUDY    27  23  86 SE6       30.20S WCI  20
MOOSE LAKE     CLOUDY    27  21  80 CALM      30.16S
HINCKLEY       CLOUDY    28  23  80 CALM      30.19R
CLOQUET        CLOUDY    25  21  86 SE5       30.17R WCI  19
MCGREGOR       CLOUDY    27  23  86 SE8       30.15S WCI  18
$$
MNZ071>073-080-081-089-090-097-098-200100-
   Southwest Minnesota

CITY           SKY/WX    TMP DP  RH WIND       PRES   REMARKS
MONTEVIDEO     CLOUDY    30  30 100 SW6       30.11S FOG     WCI  24
GRANITE FALLS  CLOUDY    31  28  89 S13       30.13S WCI  21
CANBY          CLOUDY    31  30  93 S7        30.08F FOG     WCI  25
MARSHALL       CLOUDY    30  27  86 SW14      30.11R WCI  20
REDWOOD FALLS  CLOUDY    33  29  85 S9        30.13R WCI  25
OLIVIA         CLOUDY    34  32  93 S6        30.13R WCI  29
PIPESTONE      CLOUDY    28  28 100 SW6       30.07S FOG     WCI  22
WINDOM         CLOUDY    32  28  86 S7        30.12R WCI  26
WORTHINGTON    CLOUDY    30  27  86 S13G20    30.11S WCI  20
JACKSON        CLOUDY    32  28  86 S10       30.13S WCI  24
TRACY          CLOUDY    32  29  90 S14       30.11R WCI  22
SLAYTON        CLOUDY    29  29  99 S7        30.10S FOG     WCI  22
$$
MNZ065>067-074>077-082>085-091>093-200100-
   South Central Minnesota

CITY           SKY/WX    TMP DP  RH WIND       PRES   REMARKS
MANKATO        CLOUDY    30  27  86 S9        30.17S WCI  22
NEW ULM        CLOUDY    30  30 100 S13       30.14F FOG     WCI  20
ST JAMES       CLOUDY    34  30  86 SE13      30.15F FOG     WCI  25
FAIRMONT       CLOUDY    30  25  80 S12       30.15S WCI  21
GLENCOE        CLOUDY    32  30  93 SE7       30.15S FOG     WCI  26
FARIBAULT      CLOUDY    28  27  93 S7        30.19F WCI  21
OWATONNA       MOCLDY    28  25  86 SE12      30.19S WCI  18
WASECA         CLOUDY    30  28  93 SE9       30.19F FOG     WCI  22
ALBERT LEA     MOCLDY    28  28 100 SE9       30.18F FOG     WCI  20
$$
MNZ078>079-086>088-094>096-200100-
   Southeast Minnesota

CITY           SKY/WX    TMP DP  RH WIND       PRES   REMARKS
ROCHESTER      CLOUDY    27  23  85 S12       30.20F WCI  17
6HR MIN TEMP:  27; 6HR MAX TEMP:  28;

RED WING       CLOUDY    30  23  74 SE6       30.22S WCI  24
STANTON        CLOUDY    31  26  83 S7        30.19F WCI  24
DODGE CENTER   CLOUDY    28  27  93 S10       30.19F FOG     WCI  19
WINONA         CLOUDY    32  23  69 S7        30.26F WCI  26
AUSTIN         CLOUDY    28  25  86 S7        30.20S WCI  21
PRESTON        CLOUDY    27  22  84 S8        30.22S WCI  18
$$
ABBREVIATIONS USED IN REMARKS
   TC - TEMPERATURES IN CELSIUS
  WCI - WIND CHILL INDEX
   HX - HEAT INDEX
  VSB - VISIBILITY
$$



USA.gov is the U.S. government's official web portal to all federal, state and local government web resources and services.